DG7FDL-13 Weather Reports


Display with metric or nautical units.
time (UTC)temp
F
wind
direction
speed
MPH
gust
MPH
rain 1hr
in
rain 24hr
in
rain mn
in
humidity
%
barometer
mb
20260506123002 64 0 2.0 2.0 0.00 0.63 0.13 60 1005.4
20260506122049 64 0 2.0 3.0 0.00 0.63 0.13 60 1005.4
20260506120943 62 0 2.0 5.0 0.00 0.63 0.13 64 1005.5
20260506115219 62 0 2.0 3.0 0.00 0.63 0.13 66 1005.4
20260506114144 63 0 1.0 3.0 0.00 0.63 0.13 64 1005.4
20260506113120 62 0 2.0 3.0 0.00 0.63 0.13 72 1005.5
20260506112143 60 0 2.0 3.0 0.00 0.63 0.13 76 1005.6
20260506111208 61 0 2.0 4.0 0.00 0.63 0.13 71 1005.6
20260506110230 61 0 1.0 2.0 0.00 0.63 0.13 80 1005.7
20260506105207 59 0 3.0 5.0 0.00 0.63 0.13 82 1005.8
20260506102007 58 45 2.0 4.0 0.00 0.63 0.13 85 1005.9
20260506100807 59 45 2.0 3.0 0.00 0.63 0.13 88 1006.0
20260506095003 58 0 2.0 5.0 0.00 0.63 0.13 88 1005.9
20260506093919 58 0.0 2.0 0.00 0.63 0.13 89 1005.9
20260506092915 57 0.0 1.0 0.00 0.63 0.13 93 1005.8
20260506091910 57 0.0 0.0 0.00 0.63 0.13 95 1005.8
20260506090807 57 0 2.0 3.0 0.00 0.63 0.13 94 1005.7
20260506085851 57 45 2.0 5.0 0.00 0.63 0.13 92 1005.7
20260506083919 57 0.0 2.0 0.00 0.63 0.13 96 1005.5
20260506081851 56 0 2.0 4.0 0.00 0.63 0.13 98 1005.5
20260506080914 56 0.0 2.0 0.00 0.63 0.13 100 1005.4
20260506073227 56 0.0 0.0 0.00 0.63 0.13 1005.3
20260506071138 56 0.0 1.0 0.00 0.63 0.13 1005.4
20260506070250 56 0.0 0.0 0.00 0.63 0.13 1005.3
20260506062007 55 0.0 1.0 0.00 0.63 0.13 1005.3
20260506061031 55 0 1.0 2.0 0.00 0.63 0.13 1005.2
20260506060718 55 0 1.0 2.0 0.00 0.63 0.13 1005.2
20260506050943 54 0.0 0.0 0.01 0.63 0.13 1005.2
20260506044855 54 0.0 1.0 0.01 0.63 0.13 1005.2
20260506043850 54 0.0 1.0 0.01 0.63 0.13 1004.9
20260506042807 54 0.0 1.0 0.01 0.63 0.13 1005.1
20260506041831 54 0.0 2.0 0.02 0.63 0.13 1004.9
20260506035450 55 0.0 0.0 0.01 0.61 0.12 1004.9
20260506034427 55 0.0 0.0 0.02 0.61 0.12 1005.1
20260506033342 55 0.0 0.0 0.02 0.61 0.12 1005.1
20260506031342 56 0.0 0.0 0.05 0.60 0.11 1005.1
20260506030230 56 0.0 0.0 0.06 0.60 0.11 1005.2
20260506025206 56 0.0 0.0 0.07 0.60 0.11 1005.3
20260506024142 55 0.0 0.0 0.07 0.59 0.09 1005.4
20260506023030 55 0.0 0.0 0.07 0.59 0.09 1005.5
20260506022006 54 0.0 2.0 0.07 0.58 0.08 1005.7
20260506013206 56 0.0 0.0 0.01 0.52 0.02 1006.1
20260506012231 55 0.0 0.0 0.00 0.51 0.01 1006.1
20260506011208 56 0.0 0.0 0.00 0.51 0.01 99 1006.1
20260506010142 56 0.0 1.0 0.00 0.51 0.01 1006.1
20260506004204 56 0.0 0.0 0.00 0.51 0.01 98 1006.2
20260506002943 56 0.0 0.0 0.00 0.51 0.01 98 1006.3
20260506001920 56 0.0 0.0 0.00 0.51 0.01 100 1006.4
20260506000942 55 0.0 0.0 0.00 0.51 0.01 1006.5
20260505235920 56 0.0 0.0 0.00 0.51 0.01 99 1006.6
20260505234948 56 0.0 0.0 0.00 0.51 0.01 99 1006.6
20260505233742 56 0.0 0.0 0.00 0.51 0.01 100 1006.7
20260505232718 56 0.0 0.0 0.00 0.51 0.01 99 1006.8
20260505231742 56 0.0 0.0 0.01 0.51 0.01 1006.8
20260505225851 56 0.0 0.0 0.01 0.51 0.01 1006.9
20260505223831 57 0.0 0.0 0.02 0.51 0.01 97 1007.0
20260505222806 56 0.0 0.0 0.02 0.51 0.01 99 1007.0
20260505220943 57 0.0 0.0 0.04 0.50 0.00 96 1007.2
20260505214222 57 0.0 0.0 0.05 0.48 0.48 96 1007.3
20260505213119 56 0.0 0.0 0.06 0.48 0.48 98 1007.3
20260505212230 57 0.0 0.0 0.06 0.47 0.47 97 1007.4
20260505211030 57 0.0 0.0 0.06 0.46 0.46 98 1007.4
20260505210223 56 0.0 0.0 0.06 0.45 0.45 98 1007.5
20260505204006 57 0.0 0.0 0.07 0.44 0.44 97 1007.5
20260505203119 57 0.0 0.0 0.08 0.43 0.43 97 1007.7
20260505202027 57 0.0 0.0 0.08 0.41 0.41 97 1007.7
20260505201050 57 0.0 0.0 0.09 0.40 0.40 94 1007.5
20260505195207 57 0.0 0.0 0.15 0.38 0.38 97 1007.4
20260505194142 57 0.0 0.0 0.18 0.37 0.37 94 1007.4
20260505192230 58 0.0 0.0 0.28 0.33 0.33 94 1007.4
20260505191118 57 0.0 0.0 0.27 0.31 0.31 97 1007.2
20260505190318 57 0.0 0.0 0.27 0.28 0.28 98 1007.1
20260505185119 57 0.0 1.0 0.21 0.22 0.22 99 1007.0
20260505184143 57 0.0 1.0 0.19 0.19 0.19 98 1007.1
20260505182942 58 0.0 2.0 0.08 0.08 0.08 97 1006.9
20260505181939 58 0.0 2.0 0.04 0.04 0.04 94 1006.9
20260505181002 58 0 1.0 3.0 0.02 0.02 0.02 94 1006.7
20260505175919 59 135 1.0 2.0 0.01 0.01 0.01 92 1006.8
20260505175043 60 0 0.0 2.0 0.00 0.00 0.00 89 1006.8
20260505174007 61 0.0 0.0 0.00 0.00 0.00 81 1006.9
20260505172942 62 0.0 0.0 0.00 0.00 0.00 78 1006.9
20260505171938 61 0.0 1.0 0.00 0.00 0.00 79 1006.8
20260505170943 61 0.0 1.0 0.00 0.00 0.00 78 1006.5
20260505165918 62 0.0 0.0 0.00 0.00 0.00 76 1006.6
20260505165031 62 0 1.0 2.0 0.00 0.00 0.00 75 1006.5
20260505163918 62 0.0 2.0 0.00 0.00 0.00 75 1006.6
20260505162143 63 0.0 0.0 0.00 0.00 0.00 73 1006.7
20260505161051 63 0.0 1.0 0.00 0.00 0.00 73 1006.7
20260505153002 64 0.0 1.0 0.00 0.00 0.00 71 1006.8
20260505152054 65 0 1.0 2.0 0.00 0.00 0.00 69 1006.8
20260505151022 65 0 2.0 4.0 0.00 0.00 0.00 67 1006.8
20260505123939 68 0 1.0 2.0 0.00 0.00 0.00 55 1007.9